{"data":{"norad_id":54136,"intl_designator":"2022-138Z","name":"ONEWEB-0518","alt_names":[],"object_type":"PAYLOAD","status":"ACTIVE","operator":null,"country":"UK","launch_date":"2022-10-22","launch_site_code":"SRILR","launch_vehicle":null,"mission":null,"orbit_class":"UNKNOWN","rcs_meters":null,"size_class":null,"mass_kg":null,"dimensions":null,"purposes":["comms"],"wikipedia_slug":null,"has_3d_model":false,"image_url":null,"decayed_at":null,"tle_current":{"epoch":"2026-05-25T04:09:20.738880Z","epoch_age_seconds":74269,"freshness":"FRESH","line1":"1 54136U 22138Z   26145.17315670  .00000089  00000+0  18926-3 0  9998","line2":"2 54136  87.9151 309.5627 0001616  91.8765 268.2553 13.19725047173791","mean_motion":13.19725047,"eccentricity":0.0001616,"inclination_deg":87.9151,"raan_deg":309.5627,"arg_perigee_deg":91.8765,"mean_anomaly_deg":268.2553,"bstar":0.00018926,"rev_number":17379,"period_min":109.11363721356,"perigee_km":1184.5480449817,"apogee_km":1186.9926998444,"semimajor_km":7563.9073724131,"source":"CELESTRAK","updated_at":"2026-05-25T13:38:22.589593Z"}}}